Location: ?????
(53.1708°N, 59.2452°E)
Time: 18:24:18
(UTC+00:00)

Daily predictions for brighter satellites

Satellite Brightness Start Highest point End
(mag) Time Altitude Azimuth Time Altitude Azimuth Time Altitude Azimuth
Cosmos 1271 Rocket 2.7 13:30:17 10° N 13:34:16 74° ENE 13:38:16 10° SSE
Unknown 4.1 13:31:25 10° SW 13:35:25 49° SSE 13:39:26 10° E
Unknown 4.0 13:32:47 10° SW 13:36:49 51° SSE 13:40:51 10° E
Unknown 4.0 13:33:16 10° SW 13:37:19 54° SSE 13:41:22 10° E
H-2A R/B 3.9 13:35:12 10° ENE 13:37:38 13° NE 13:40:06 10° NNE
CZ-4 R/B 1.8 13:34:13 10° SE 13:38:13 45° ENE 13:42:17 10° N
Cosmos 2297 Rocket 4.4 13:34:51 10° WNW 13:38:22 16° NNW 13:41:54 10° NNE
Cosmos 2082 Rocket 3.0 13:33:39 10° NNW 13:38:52 34° NE 13:44:02 10° ESE
Unknown 4.0 13:34:55 10° SW 13:38:58 54° SSE 13:43:02 10° E
Unknown 3.4 13:35:22 10° W 13:39:08 85° S 13:42:53 10° E
YAOGAN 1 3.0 13:36:54 10° SE 13:40:56 40° ENE 13:45:00 10° N
Unknown 4.0 13:38:01 10° SW 13:42:04 53° SSE 13:46:07 10° E
Gbstr 26 Del rocket 4.1 13:38:42 10° W 13:44:22 75° S 13:51:23 10° ESE
CZ-2D R/B 4.4 13:41:37 10° ESE 13:44:47 25° ENE 13:48:00 10° N
Unknown 4.0 13:41:19 10° SW 13:45:22 55° SSE 13:49:24 10° E
COSMOS 2406 3.2 13:40:27 10° NNW 13:46:17 78° ENE 13:52:02 10° SE
Unknown 3.8 13:42:47 10° WSW 13:46:49 59° SSE 13:50:46 11° E
Unknown 3.9 13:43:00 10° SW 13:47:04 55° SSE 13:51:02 11° E
CSL-04 Debris 4.3 13:42:46 10° SE 13:48:05 55° ENE 13:53:27 10° N
Unknown 3.9 13:44:37 10° SW 13:48:41 56° SSE 13:52:36 11° E
Unknown 3.7 13:45:47 10° WSW 13:49:48 66° SSE 13:53:37 11° E
Unknown 3.9 13:46:17 10° WSW 13:50:22 57° SSE 13:54:13 11° E
ASTEX 1 3.6 13:46:18 10° NNE 13:51:06 48° E 13:55:54 10° SSE
CZ-4 R/B 4.4 13:47:15 10° SSE 13:51:19 62° ENE 13:55:24 10° N
Cosmos 1726 Rocket 3.6 13:47:34 10° S 13:51:51 56° E 13:56:08 10° NNE
Envisat 3.0 13:47:16 10° SSE 13:52:21 83° ENE 13:57:29 10° NNW
H-2A R/B 3.9 13:50:06 10° S 13:53:54 50° W 13:57:45 10° NNW
Cosmos 2228 3.0 13:49:55 10° S 13:54:14 62° E 13:58:32 10° NNE
Unknown 3.4 13:52:26 10° W 13:56:16 85° S 13:59:38 13° E
Unknown 3.8 13:52:50 10° WSW 13:56:56 61° SSE 14:00:32 13° E
Unknown 3.8 13:54:33 10° WSW 13:58:39 62° SSE 14:02:12 13° E
Cosmos 1703 3.3 13:55:09 10° N 13:59:03 55° ENE 14:02:54 10° SSE
Cosmos 304 Rocket 4.3 13:55:06 10° SW 13:59:52 64° WNW 14:04:40 10° NNE
Cosmos 1844 Rocket 2.7 13:54:24 10° SSW 14:00:03 77° ESE 14:05:43 10° NNE
Unknown 3.8 13:56:11 10° WSW 14:00:17 62° SSE 14:03:47 14° E
Unknown 3.8 13:57:50 10° WSW 14:01:56 63° SSE 14:05:21 14° E
YAOGAN 6 2.5 13:58:37 10° SSE 14:02:15 69° ENE 14:05:53 10° N
Cosmos 292 Rocket 4.3 13:58:30 10° S 14:02:50 37° ESE 14:07:12 10° NE
Cosmos 2084 3.6 13:58:58 10° SW 14:03:27 67° SE 14:07:53 10° NE
Cosmos 921 Rocket 3.2 13:59:13 10° S 14:03:36 55° ESE 14:07:58 10° NNE
Unknown 3.7 13:59:30 10° WSW 14:03:36 64° SSE 14:06:58 15° E
Unknown 3.4 14:02:00 10° W 14:05:54 84° S 14:08:57 16° E
Meteor 1-11 4.3 14:00:43 10° N 14:06:27 65° ENE 14:12:12 10° SSE
Unknown 3.7 14:02:50 10° WSW 14:06:57 66° SSE 14:10:11 16° E
Cosmos 1821 Rocket 4.4 14:01:34 10° NNW 14:07:37 68° W 14:13:42 10° S
Cosmos 1605 Rocket 4.0 14:01:53 10° N 14:08:04 60° ENE 14:14:07 10° SSE
Starlink (trailer) 3.7 14:04:28 10° WSW 14:08:35 67° SSE 14:11:45 16° E
Cosmos 2058 Rocket 3.1 14:05:06 10° S 14:09:22 56° E 14:13:39 10° NNE
FengYun 1-2 T 4.3 14:04:04 10° SSE 14:09:44 89° WSW 14:15:22 10° NNW
Unknown 3.7 14:06:07 10° WSW 14:10:14 68° SSE 14:13:21 17° E
Cosmos 2058 4.2 14:07:46 10° NNE 14:11:02 21° ENE 14:12:56 16° E
FALCON 9 DEB 3.2 14:07:37 10° W 14:11:06 77° SSW 14:13:38 17° ESE
Unknown 3.7 14:07:45 10° WSW 14:11:53 68° SSE 14:14:56 17° E
Unknown 3.2 14:09:53 10° W 14:13:17 72° SSW 14:15:43 18° ESE
Meteor 1-16 Rocket 4.1 14:08:56 10° S 14:14:25 70° E 14:19:48 10° NNE
Cosmos 1953 2.9 14:11:10 10° SSW 14:15:11 62° WNW 14:19:16 10° N
Okean-O 4.2 14:12:28 10° SSW 14:16:39 40° W 14:20:52 10° NNW
SJ-6B 4.3 14:16:41 17° ENE 14:17:05 17° ENE 14:19:32 10° NNE
Cosmos 1934 Rocket 4.1 14:10:50 10° NNW 14:17:11 86° W 14:23:34 10° S
USA 116 3.7 14:14:20 10° NNE 14:17:17 37° E 14:20:22 10° S
Cosmos 1356 3.5 14:14:30 10° S 14:17:51 54° E 14:21:15 10° NNE
Unknown 3.6 14:14:05 10° WSW 14:18:13 72° SSE 14:21:01 20° E
Unknown 3.6 14:14:24 10° WSW 14:18:32 71° SSE 14:21:20 20° E
Unknown 3.6 14:15:02 10° WSW 14:19:10 72° SSE 14:21:56 20° E
Lacrosse 5 1.8 14:14:10 10° WNW 14:19:16 86° NNE 14:23:18 16° ESE
Unknown 3.2 14:16:12 10° W 14:19:44 78° SSW 14:21:57 21° ESE
Cosmos 1727 Rocket 4.4 14:16:09 10° SSE 14:21:44 38° E 14:27:20 10° NNE
COSMO-SKYMED 1 2.5 14:17:43 10° NNE 14:22:05 75° ESE 14:26:26 10° S
Nadezhda 3 Rocket 4.4 14:15:52 10° SSW 14:22:08 71° WNW 14:28:32 10° N
Unknown 3.6 14:18:42 10° WSW 14:22:50 74° SSE 14:25:28 22° E
Unknown 3.6 14:19:25 10° WSW 14:23:33 74° SSE 14:26:09 22° E
Cosmos 2278 Rocket 2.7 14:18:42 10° S 14:23:49 35° ESE 14:28:56 10° NE
SWAS 4.4 14:19:51 10° SSW 14:24:08 80° ESE 14:28:28 10° NE
ATLAS 5 CENTAUR R/B 2.1 14:20:37 10° WSW 14:25:01 65° NW 14:30:05 10° NE
Unknown 3.6 14:21:10 10° WSW 14:25:18 76° SSE 14:27:51 23° E
SJ 16-02 2.8 14:22:14 10° N 14:25:24 19° NE 14:26:24 18° ENE
Cosmos 2173 Rocket 4.5 14:21:56 10° N 14:27:45 37° ENE 14:33:18 11° SE
IRS-1A Rocket 4.3 14:22:45 10° SE 14:28:05 54° ENE 14:33:28 10° N
Unknown 3.6 14:24:29 10° WSW 14:28:37 77° SSE 14:31:02 24° E
Cosmos 1844 3.8 14:23:11 10° SSW 14:28:55 86° WNW 14:34:46 10° NNE
Unknown 3.6 14:24:48 10° WSW 14:28:56 76° SSE 14:31:20 24° E
Falcon 9 debris 3.3 14:26:14 10° W 14:29:40 65° SSW 14:31:30 25° ESE
Unknown 3.6 14:26:02 10° WSW 14:30:11 77° SSE 14:32:32 25° E
Cosmos 1908 3.2 14:28:35 10° S 14:32:25 60° E 14:36:17 10° NNE
NOSS 3-2 (A) 4.5 14:28:05 10° SSE 14:32:27 22° ESE 14:33:37 21° E
Unknown 3.6 14:29:12 10° WSW 14:33:20 77° SSE 14:35:34 26° E
BREEZE-M DEB (TANK) 4.3 14:31:30 10° SSW 14:33:40 15° SSE 14:34:05 14° SSE
Ariane Rocket 3.0 14:29:55 10° SSE 14:34:58 65° ENE 14:40:02 10° N
NOSS 3-3 (A) 4.4 14:27:51 10° NW 14:35:05 77° NE 14:41:54 16° SE
NOSS 3-3 (C) 4.4 14:27:56 10° NW 14:35:11 77° NE 14:41:58 16° SE
Unknown 3.6 14:32:39 10° WSW 14:36:49 79° SSE 14:38:54 28° E
Unknown 3.6 14:34:20 10° WSW 14:38:28 80° S 14:40:30 29° E
Resurs 01 Rocket 3.4 14:39:59 16° NE 14:39:59 16° NE 14:42:19 10° NNE
Unknown 3.6 14:35:58 10° WSW 14:40:07 81° S 14:42:05 30° E
COBE Rocket 4.5 14:36:00 10° N 14:41:09 64° WNW 14:46:11 10° SSW
Unknown 3.5 14:37:37 10° WSW 14:41:47 81° SSE 14:43:41 31° E
Unknown 3.4 14:38:53 10° W 14:42:22 64° SSW 14:43:45 33° SE
CSL-04 Rocket 4.2 14:38:49 10° S 14:44:18 63° WSW 14:49:46 10° NNW
Cosmos 967 Rocket 4.5 14:38:35 10° NW 14:45:05 84° NE 14:50:19 17° SE
Unknown 3.5 14:40:59 10° WSW 14:45:08 82° S 14:46:54 34° E
Unknown 3.5 14:42:41 10° WSW 14:46:51 83° SSE 14:48:33 35° E
Cosmos 2263 Rocket 4.2 14:43:14 10° W 14:47:43 23° NNW 14:52:13 10° NNE
Cosmos 1939 Rocket 2.8 14:44:25 10° SSE 14:48:25 90° ENE 14:52:30 10° NNW
Unknown 3.5 14:44:17 10° WSW 14:48:26 83° S 14:50:05 36° E
Cosmos 1461 3.1 14:44:43 10° NW 14:48:45 68° SW 14:51:35 19° SSE
FREGAT/IRIS 4.0 14:50:10 24° NNE 14:50:10 24° NNE 14:51:37 10° N
Cosmos 1937 Rocket 4.2 14:44:45 10° NNW 14:49:26 33° NE 14:50:47 29° E
Unknown 3.5 14:45:56 10° WSW 14:50:05 83° S 14:51:39 37° E
Cosmos 2100 Rocket 4.1 14:44:05 10° N 14:50:11 54° ENE 14:56:01 11° SSE
Unknown 3.5 14:46:21 10° WSW 14:50:30 84° S 14:52:04 37° E
Unknown 3.5 14:49:05 10° WSW 14:53:14 84° S 14:54:41 40° E
NOAA 11 4.2 14:48:43 10° SSE 14:54:10 82° WSW 14:59:39 10° NNW
Cosmos 990 Rocket 4.4 14:50:24 10° NNW 14:55:23 43° NE 14:57:03 33° E
Cosmos 2084 Rocket 3.4 14:51:49 10° NW 14:56:17 78° NE 14:57:58 37° ESE
Unknown 3.5 14:52:27 10° W 14:56:37 84° SSE 14:57:55 43° E
Abrixas rocket 4.3 14:55:59 10° SSW 14:57:03 15° S 14:57:03 15° S
Unknown 3.5 14:54:05 10° W 14:58:14 85° S 14:59:29 44° E
ARGOS 3.7 14:56:41 31° E 14:58:22 39° ENE 15:03:22 10° N
SPOT 3 Rocket 3.8 14:56:35 30° ESE 14:58:38 45° ENE 15:03:37 10° N
Cosmos 1833 Rocket 3.0 14:53:47 10° NW 14:59:22 67° WSW 15:04:56 10° SSE
Unknown 3.5 14:55:59 10° W 15:00:09 86° S 15:01:19 46° E
Cosmos 1726 3.2 14:57:40 10° SSW 15:01:12 45° WNW 15:04:44 10° N
Unknown 3.5 14:57:22 10° W 15:01:32 86° S 15:02:38 48° E
Unknown 3.5 14:59:03 10° W 15:03:13 86° S 15:04:16 50° E
Cosmos 1153 Rocket 4.4 14:57:38 10° NNW 15:03:49 87° W 15:09:58 10° S
Cosmos 489 Rocket 4.5 14:59:07 10° SSW 15:05:20 84° WNW 15:11:36 10° NNE
Unknown 3.5 15:02:25 10° W 15:06:35 87° S 15:07:30 54° E
Cosmos 1812 Rocket 3.5 15:03:20 10° S 15:07:43 67° E 15:12:11 10° NNE
Cosmos 1892 4.1 15:04:14 10° N 15:06:22 25° NNE 15:06:22 25° NNE
ATLAS CENTAUR R/B 3.2 15:04:22 10° NW 15:08:05 22° NNE 15:09:15 20° NE
Unknown 3.5 15:04:05 10° W 15:08:15 87° S 15:09:06 56° E
HJ-1C 3.5 15:07:01 32° S 15:08:28 75° WSW 15:11:52 10° NNW
SJ-11-01 4.2 15:06:47 29° SSE 15:09:11 69° ENE 15:13:52 10° N
Unknown 3.5 15:05:45 10° W 15:09:55 88° S 15:10:42 58° E
Cosmos 1076 Rocket 3.4 15:05:55 10° N 15:10:20 90° S 15:13:20 20° S
ADEOS Rocket 3.9 15:03:39 10° NNE 15:10:51 40° E 15:17:38 10° SSE
Unknown 3.5 15:07:25 10° W 15:11:35 88° S 15:12:17 60° E
Cosmos 2016 Rocket 4.1 15:05:47 10° N 15:11:53 52° ENE 15:14:31 32° SE
CZ-4 R/B 3.9 15:10:00 10° SSW 15:13:26 24° W 15:16:56 10° NW
Unknown 3.5 15:10:43 10° W 15:14:53 88° SSE 15:15:28 65° E
H-2A R/B 2.2 15:14:28 41° ESE 15:15:56 53° ENE 15:21:14 10° N
Unknown 3.5 15:12:08 10° W 15:16:18 89° SSE 15:16:49 67° E
Unknown 3.5 15:12:39 10° W 15:16:49 89° SSE 15:17:19 68° E
Unknown 3.2 15:13:26 10° W 15:17:11 75° SSW 15:17:17 74° S
Unknown 3.4 15:14:17 10° W 15:18:27 89° S 15:18:54 71° E
Cosmos 2227 Rocket 4.5 15:16:48 10° NNW 15:19:22 13° N 15:21:54 10° NNE
Meteor 2-1 Rocket 4.3 15:15:55 10° SSE 15:21:12 50° E 15:26:36 10° NNE
Unknown 3.4 15:17:23 10° W 15:21:33 89° S 15:21:52 76° E
Cosmos 2082 Rocket 2.6 15:17:41 10° NW 15:23:21 64° WSW 15:27:18 20° SSE
Unknown 3.4 15:20:43 10° W 15:24:53 89° SSE 15:25:03 82° E
Cosmos 2297 Rocket 4.4 15:22:21 10° NNW 15:24:57 13° N 15:27:33 10° NE
Unknown 3.4 15:22:03 10° W 15:26:10 90° SSE 15:26:15 86° E
Unknown 3.4 15:22:24 10° W 15:26:34 90° SSE 15:26:41 85° E
Unknown 3.5 15:24:02 10° W 15:28:12 90° S 15:28:15 88° E
Unknown 3.4 15:24:54 10° W 15:28:54 87° WSW 15:28:54 87° WSW
Unknown 3.5 15:25:43 10° W 15:29:52 89° SW 15:29:52 89° SW
Cosmos 2061 Rocket 3.9 15:25:18 10° N 15:31:36 71° ENE 15:34:10 37° SSE
Unknown 3.7 15:30:50 10° W 15:34:10 64° WSW 15:34:10 64° WSW
Cosmos 1898 Rocket 3.4 15:29:44 10° NNW 15:35:02 83° ENE 15:36:06 58° SE
Unknown 3.6 15:32:18 10° W 15:36:11 78° W 15:36:11 78° W
Unknown 3.7 15:34:02 10° W 15:37:51 75° W 15:37:51 75° W
Unknown 3.7 15:35:40 10° W 15:39:25 72° W 15:39:25 72° W
Unknown 3.8 15:37:19 10° W 15:41:00 69° W 15:41:00 69° W
Cosmos 2151 3.5 15:37:18 10° N 15:40:38 51° N 15:40:38 51° N
Unknown 3.9 15:38:59 10° W 15:42:36 66° W 15:42:36 66° W
Cosmos 1844 Rocket 4.5 15:39:37 10° W 15:44:32 29° NW 15:49:28 10° NNE
Unknown 4.1 15:40:39 10° W 15:43:43 53° W 15:43:43 53° W
Unknown 4.0 15:42:20 10° W 15:45:50 62° W 15:45:50 62° W
Starlink (trailer) 4.1 15:43:59 10° W 15:47:24 59° W 15:47:24 59° W
Cosmos 2058 3.6 15:44:09 10° NNW 15:48:16 52° W 15:49:09 43° SW
Cosmos 1459 Rocket 4.2 15:42:49 10° NNW 15:49:00 71° W 15:53:53 17° S
Unknown 4.1 15:45:39 10° W 15:49:00 57° W 15:49:00 57° W
In-Cosmos 22 Rocket 4.3 15:44:30 10° NNW 15:49:51 70° W 15:52:08 35° S
CZ-2C R/B 3.2 15:49:53 65° E 15:50:10 66° ENE 15:55:55 10° N
SJ-6B 3.7 15:52:19 45° NW 15:52:19 45° NW 15:55:07 10° NNW
Unknown 4.2 15:47:17 10° W 15:50:35 55° W 15:50:35 55° W
USA 238 DEB 3.5 15:50:28 10° SW 15:57:10 74° SE 15:58:53 53° ENE
USA 238 3.5 15:50:35 10° SW 15:57:17 74° SE 15:58:56 54° ENE
MetOp-A 4.2 15:58:14 65° NNE 15:58:14 65° NNE 16:03:05 10° NNW
Lacrosse 5 3.1 15:57:25 10° WNW 16:01:54 32° SW 16:02:30 31° SSW
SJ 16-02 2.1 16:00:10 10° NNW 16:03:24 48° NNW 16:03:24 48° NNW
Cosmos 2278 Rocket 2.9 16:02:11 10° SW 16:07:44 54° NW 16:13:20 10° NNE
ATLAS 5 CENTAUR R/B 3.4 16:06:24 10° WNW 16:10:33 29° NNW 16:11:45 26° NNE
Cosmos 1802 Rocket 4.5 16:06:21 10° NNW 16:12:40 60° W 16:16:10 27° SSW
Resurs 01 Rocket 3.1 16:17:34 32° NNW 16:17:34 32° NNW 16:20:01 10° NNW
Cosmos 1864 Rocket 4.5 16:11:18 10° NNW 16:17:27 76° W 16:18:16 66° SSW
Cosmos 1238 Rocket 4.2 16:11:27 10° N 16:17:17 60° NE 16:17:17 60° NE
NOSS 3-2 (A) 3.6 16:16:19 10° SW 16:21:05 61° SW 16:21:05 61° SW
Meteor 2-3 Rocket 4.4 16:18:25 10° N 16:22:33 46° N 16:22:33 46° N
Cosmos 2123 Rocket 4.1 16:26:54 70° N 16:26:54 70° N 16:32:23 10° N
Cosmos 1937 Rocket 4.3 16:26:38 10° NNW 16:30:58 47° W 16:30:58 47° W
Cosmos 1725 Rocket 4.3 16:26:36 10° NNW 16:32:47 62° W 16:33:39 56° SW
Cosmos 2233 Rocket 4.1 16:29:30 10° NNW 16:35:08 72° NNW 16:35:08 72° NNW
ARGOS 4.1 16:38:13 42° WSW 16:38:36 43° W 16:43:48 10° NNW
ATLAS CENTAUR R/B 3.7 16:43:32 10° NW 16:45:26 23° NNW 16:45:26 23° NNW
H-2A R/B 3.6 16:55:07 30° WSW 16:55:38 30° W 17:00:24 10° NNW
ADEOS Rocket 3.9 16:49:01 10° NNE 16:56:40 62° WNW 17:03:53 10° SW
Terra 4.4 17:04:34 14° N 17:04:34 14° N 17:05:14 10° N
Cosmos 2227 Rocket 4.2 17:01:20 10° NNW 17:04:09 20° N 17:04:09 20° N
Cosmos 2297 Rocket 4.2 17:06:42 10° NNW 17:09:22 20° N 17:09:22 20° N
ATLAS 3B R/B 4.5 21:08:12 24° NE 21:08:12 24° NE 21:11:20 10° ENE
CENTAUR R/B 4.0 21:17:29 40° NNE 21:17:29 40° NNE 21:24:27 10° E
SL-16 R/B 4.1 21:57:38 26° NE 21:57:38 26° NE 22:00:05 10° NE
NOSS 3-2 (C) 4.3 22:21:44 59° NNE 22:22:16 60° NNE 22:30:17 10° ESE
Cosmos 2322 Rocket 3.6 22:27:32 35° NE 22:27:32 35° NE 22:30:41 10° NNE
Resurs 1-4 Rocket 4.0 22:28:24 10° N 22:30:31 24° N 22:30:31 24° N
Cosmos 2360 Rocket 3.3 22:36:36 40° ENE 22:36:36 40° ENE 22:40:30 10° NE
USA 229 DEB 4.3 22:36:08 48° N 22:36:08 48° N 22:42:13 10° NE
USA 229 4.3 22:36:15 48° N 22:36:15 48° N 22:42:18 10° NE
NOSS 3-1 (A) 4.1 22:40:48 50° N 22:40:48 50° N 22:46:26 10° NE
Cosmos 1980 Rocket 3.8 22:43:03 27° N 22:43:03 27° N 22:46:09 10° NNE
USA 234 3.6 22:42:39 10° ESE 22:47:30 54° SE 22:47:30 54° SE
Lacrosse 4 Rocket 4.0 22:57:50 15° NNE 22:57:50 15° NNE 22:58:44 10° NNE
ARIANE 5 R/B 3.8 22:50:22 10° NNE 22:53:18 36° NNE 22:53:18 36° NNE
NOSS 3-1 (C) 4.2 22:56:44 44° NNW 22:56:44 44° NNW 23:03:15 10° NE
ATLAS 3B R/B 3.1 22:55:31 46° NNW 22:57:12 59° NNE 23:03:53 10° ESE
ADEOS II 3.0 22:56:39 10° NNE 23:00:10 43° NNE 23:00:10 43° NNE
CENTAUR R/B 3.2 23:04:42 33° NW 23:08:38 73° NE 23:17:12 10° ESE
CZ-2D R/B 3.8 23:06:38 10° N 23:08:47 22° NNW 23:08:47 22° NNW
Cosmos 2278 Rocket 2.7 23:09:18 36° N 23:11:29 58° NE 23:17:04 10° SE
COSMOS 2455 3.0 23:14:12 63° SE 23:14:22 63° ESE 23:20:21 10° NE
Cosmos 1709 Rocket 4.4 23:13:56 40° SSE 23:16:06 60° E 23:22:22 10° NNE
Gblst 52 Del rocket 4.4 23:17:23 60° ESE 23:17:23 60° ESE 23:22:03 10° E
Meteor 2-14 Rocket 4.4 23:17:07 78° SE 23:17:25 81° E 23:23:36 10° NNE
Cosmos 2333 Rocket 3.1 23:19:55 38° SE 23:21:15 44° ESE 23:26:38 10° NE
ATLAS 2AS CENTAUR R/B 4.2 23:19:26 19° S 23:24:32 38° ESE 23:31:45 10° NE
USA 238 DEB 4.0 23:26:02 53° S 23:26:02 53° S 23:31:54 10° SSE
USA 238 4.0 23:26:05 54° S 23:26:05 54° S 23:32:00 10° SSE
Cosmos 1975 Rocket 4.5 23:33:40 31° N 23:33:40 31° N 23:36:04 10° N
Aureole 1 Rocket 4.2 23:31:19 37° SSE 23:33:08 52° ESE 23:37:46 10° NE
IDEFIX/ARIANE 42P 3.5 23:28:29 10° NNE 23:33:33 46° E 23:36:40 22° SSE
Cosmos 2333 4.2 23:33:42 66° SSE 23:34:18 72° ESE 23:39:58 10° NE
SL-16 R/B 3.1 23:39:30 36° NNW 23:39:30 36° NNW 23:44:11 10° NNE
Meteor 2-16 Rocket 4.3 23:37:35 53° S 23:39:10 86° E 23:45:17 10° NNE
Cosmos 1745 Rocket 4.0 23:43:27 57° WNW 23:43:27 57° WNW 23:49:26 10° N
Cosmos 2322 3.6 23:42:56 74° SW 23:43:28 86° WNW 23:49:16 10° NNE
Cosmos 2219 Rocket 2.4 23:44:48 44° S 23:46:26 64° ESE 23:51:59 10° NE
Cosmos 2251 Rocket 3.4 23:46:06 77° SW 23:46:32 88° WNW 23:51:57 10° NNE
NOSS 3-2 (A) 4.0 23:48:04 48° W 23:49:34 55° SW 23:57:34 10° SSE
Spot 2 4.2 23:51:26 10° NNE 23:55:29 65° ESE 23:55:49 62° SE
